| time (UTC) | temp F | wind direction | speed knots | gust knots | rain 1hr in | rain 24hr in | rain mn in | humidity % | barometer mb |
| 20260507154945 | 64 | 96 | 6.1 | 9.6 | 0.00 | 0.00 | 0.00 | 73 | 1012.5 |
| 20260507154939 | 64 | 113 | 7.8 | 9.6 | 0.00 | 0.00 | 0.00 | 72 | 1012.7 |
| 20260507154750 | 64 | 112 | 7.0 | 9.6 | 0.00 | 0.00 | 0.00 | 72 | 1012.5 |
| 20260507153311 | 64 | 119 | 5.2 | 9.6 | 0.00 | 0.00 | 0.00 | 72 | 1012.7 |
| 20260507152711 | 65 | 122 | 5.2 | 9.6 | 0.00 | 0.00 | 0.00 | 71 | 1012.7 |
| 20260507152317 | 64 | 93 | 7.8 | 11.3 | 0.00 | 0.00 | 0.00 | 71 | 1012.8 |
| 20260507152306 | 65 | 117 | 5.2 | 10.4 | 0.00 | 0.00 | 0.00 | 72 | 1012.7 |
| 20260507151211 | 64 | 110 | 5.2 | 11.3 | 0.00 | 0.00 | 0.00 | 71 | 1012.7 |
| 20260507151055 | 64 | 118 | 7.8 | 10.4 | 0.00 | 0.00 | 0.00 | 71 | 1012.8 |
| 20260507150251 | 65 | 129 | 7.0 | 10.4 | 0.00 | 0.00 | 0.00 | 71 | 1012.9 |
| 20260507145835 | 65 | 95 | 7.0 | 11.3 | 0.00 | 0.00 | 0.00 | 69 | 1012.8 |
| 20260507145757 | 65 | 116 | 7.8 | 12.2 | 0.00 | 0.00 | 0.00 | 70 | 1013.0 |
| 20260507145417 | 64 | 130 | 7.0 | 12.2 | 0.00 | 0.00 | 0.00 | 70 | 1013.0 |
| 20260507144238 | 65 | 89 | 7.8 | 10.4 | 0.00 | 0.00 | 0.00 | 70 | 1012.7 |
| 20260507143827 | 64 | 102 | 4.3 | 10.4 | 0.00 | 0.00 | 0.00 | 69 | 1012.8 |
| 20260507143233 | 64 | 116 | 7.8 | 10.4 | 0.00 | 0.00 | 0.00 | 69 | 1012.8 |
| 20260507142824 | 64 | 110 | 7.0 | 10.4 | 0.00 | 0.00 | 0.00 | 69 | 1012.7 |
| 20260507142228 | 64 | 130 | 7.0 | 12.2 | 0.00 | 0.00 | 0.00 | 70 | 1012.8 |
| 20260507141819 | 64 | 71 | 7.8 | 12.2 | 0.00 | 0.00 | 0.00 | 70 | 1012.9 |
| 20260507141211 | 64 | 104 | 7.8 | 12.2 | 0.00 | 0.00 | 0.00 | 70 | 1013.0 |
| 20260507140813 | 64 | 111 | 8.7 | 12.2 | 0.00 | 0.00 | 0.00 | 69 | 1013.0 |
| 20260507140212 | 65 | 80 | 7.8 | 13.0 | 0.00 | 0.00 | 0.00 | 69 | 1013.0 |
| 20260507140031 | 64 | 113 | 7.8 | 12.2 | 0.00 | 0.00 | 0.00 | 68 | 1013.3 |
| 20260507135940 | 65 | 68 | 7.0 | 13.0 | 0.00 | 0.00 | 0.00 | 68 | 1013.1 |
| 20260507135310 | 64 | 91 | 7.8 | 12.2 | 0.00 | 0.00 | 0.00 | 69 | 1013.3 |
| 20260507134211 | 65 | 124 | 7.0 | 12.2 | 0.00 | 0.00 | 0.00 | 68 | 1013.5 |
| 20260507133711 | 64 | 112 | 7.8 | 11.3 | 0.00 | 0.00 | 0.00 | 70 | 1013.4 |
| 20260507133211 | 64 | 111 | 7.8 | 12.2 | 0.00 | 0.00 | 0.00 | 68 | 1013.3 |
| 20260507132752 | 65 | 72 | 9.6 | 12.2 | 0.00 | 0.00 | 0.00 | 69 | 1013.5 |
| 20260507132211 | 64 | 93 | 9.6 | 12.2 | 0.00 | 0.00 | 0.00 | 68 | 1013.6 |
| 20260507131746 | 64 | 103 | 7.8 | 10.4 | 0.00 | 0.00 | 0.00 | 69 | 1013.7 |
| 20260507131215 | 65 | 89 | 6.1 | 10.4 | 0.00 | 0.00 | 0.00 | 68 | 1013.8 |
| 20260507131207 | 64 | 139 | 7.0 | 11.3 | 0.00 | 0.00 | 0.00 | 69 | 1013.8 |
| 20260507130333 | 64 | 120 | 7.8 | 11.3 | 0.00 | 0.00 | 0.00 | 69 | 1013.9 |
| 20260507130016 | 64 | 93 | 5.2 | 11.3 | 0.00 | 0.00 | 0.00 | 70 | 1014.0 |
| 20260507125806 | 64 | 109 | 7.0 | 11.3 | 0.00 | 0.00 | 0.00 | 67 | 1013.9 |
| 20260507125436 | 65 | 96 | 6.1 | 10.4 | 0.00 | 0.00 | 0.00 | 68 | 1014.0 |
| 20260507124354 | 64 | 103 | 7.0 | 11.3 | 0.00 | 0.00 | 0.00 | 70 | 1014.1 |
| 20260507123711 | 64 | 111 | 7.8 | 10.4 | 0.00 | 0.00 | 0.00 | 69 | 1014.2 |
| 20260507123319 | 64 | 115 | 6.1 | 9.6 | 0.00 | 0.00 | 0.00 | 71 | 1014.1 |
| 20260507122711 | 65 | 108 | 5.2 | 11.3 | 0.00 | 0.00 | 0.00 | 69 | 1014.2 |
| 20260507122312 | 64 | 108 | 7.8 | 11.3 | 0.00 | 0.00 | 0.00 | 70 | 1014.2 |
| 20260507121714 | 65 | 98 | 7.0 | 10.4 | 0.00 | 0.00 | 0.00 | 70 | 1014.2 |
| 20260507121233 | 64 | 115 | 7.0 | 11.3 | 0.00 | 0.00 | 0.00 | 71 | 1014.2 |
| 20260507120711 | 64 | 113 | 7.0 | 11.3 | 0.00 | 0.00 | 0.00 | 71 | 1014.3 |
| 20260507120209 | 65 | 112 | 7.0 | 11.3 | 0.00 | 0.00 | 0.00 | 70 | 1014.3 |
| 20260507115717 | 65 | 120 | 7.0 | 10.4 | 0.00 | 0.00 | 0.00 | 71 | 1014.3 |
| 20260507115258 | 64 | 97 | 6.1 | 9.6 | 0.00 | 0.00 | 0.00 | 71 | 1014.3 |
| 20260507114710 | 64 | 118 | 6.1 | 9.6 | 0.00 | 0.00 | 0.00 | 71 | 1014.3 |
| 20260507114322 | 64 | 96 | 7.0 | 9.6 | 0.00 | 0.00 | 0.00 | 71 | 1014.2 |
| 20260507113709 | 64 | 124 | 5.2 | 10.4 | 0.00 | 0.00 | 0.00 | 71 | 1014.1 |
| 20260507113247 | 64 | 109 | 7.8 | 10.4 | 0.00 | 0.00 | 0.00 | 71 | 1014.2 |
| 20260507112710 | 64 | 69 | 6.1 | 9.6 | 0.00 | 0.00 | 0.00 | 71 | 1014.2 |
| 20260507112537 | 64 | 134 | 7.0 | 9.6 | 0.00 | 0.00 | 0.00 | 69 | 1014.2 |
| 20260507111835 | 65 | 154 | 5.2 | 9.6 | 0.00 | 0.00 | 0.00 | 70 | 1014.2 |
| 20260507111423 | 64 | 127 | 7.0 | 8.7 | 0.00 | 0.00 | 0.00 | 73 | 1014.5 |
| 20260507111414 | 64 | 58 | 6.1 | 10.4 | 0.00 | 0.00 | 0.00 | 71 | 1014.3 |
| 20260507111338 | 64 | 117 | 6.1 | 9.6 | 0.00 | 0.00 | 0.00 | 70 | 1014.2 |
| 20260507110351 | 64 | 72 | 5.2 | 10.4 | 0.00 | 0.00 | 0.00 | 71 | 1014.4 |
| 20260507110124 | 64 | 87 | 6.1 | 9.6 | 0.00 | 0.00 | 0.00 | 74 | 1014.7 |
| 20260507105907 | 64 | 110 | 7.0 | 9.6 | 0.00 | 0.00 | 0.00 | 72 | 1014.4 |
| 20260507105419 | 64 | 70 | 7.0 | 9.6 | 0.00 | 0.00 | 0.00 | 72 | 1014.5 |
| 20260507104349 | 64 | 108 | 6.1 | 8.7 | 0.00 | 0.00 | 0.00 | 72 | 1014.6 |
| 20260507103215 | 64 | 110 | 6.1 | 9.6 | 0.00 | 0.00 | 0.00 | 73 | 1014.8 |
| 20260507102710 | 64 | 79 | 6.1 | 9.6 | 0.00 | 0.00 | 0.00 | 74 | 1014.8 |
| 20260507102211 | 64 | 105 | 7.0 | 9.6 | 0.00 | 0.00 | 0.00 | 74 | 1014.7 |
| 20260507101800 | 64 | 81 | 7.0 | 9.6 | 0.00 | 0.00 | 0.00 | 74 | 1014.7 |
| 20260507101504 | 63 | 135 | 5.2 | 9.6 | 0.00 | 0.00 | 0.00 | 74 | 1014.9 |
| 20260507100823 | 63 | 117 | 6.1 | 10.4 | 0.00 | 0.00 | 0.00 | 74 | 1014.9 |
| 20260507100211 | 63 | 106 | 7.8 | 10.4 | 0.00 | 0.00 | 0.00 | 74 | 1014.8 |
| 20260507095749 | 64 | 120 | 6.1 | 10.4 | 0.00 | 0.00 | 0.00 | 74 | 1014.8 |
| 20260507095209 | 64 | 108 | 5.2 | 10.4 | 0.00 | 0.00 | 0.00 | 74 | 1014.8 |
| 20260507094743 | 64 | 85 | 7.0 | 10.4 | 0.00 | 0.00 | 0.00 | 73 | 1014.8 |
| 20260507094210 | 64 | 128 | 5.2 | 9.6 | 0.00 | 0.00 | 0.00 | 74 | 1014.8 |
| 20260507093807 | 64 | 82 | 6.1 | 11.3 | 0.00 | 0.00 | 0.00 | 74 | 1014.8 |
| 20260507093329 | 63 | 100 | 7.8 | 11.3 | 0.00 | 0.00 | 0.00 | 74 | 1014.8 |
| 20260507092710 | 63 | 107 | 7.8 | 11.3 | 0.00 | 0.00 | 0.00 | 75 | 1014.8 |
| 20260507092644 | 64 | 72 | 7.8 | 11.3 | 0.00 | 0.00 | 0.00 | 75 | 1014.8 |
| 20260507091710 | 64 | 91 | 7.0 | 11.3 | 0.00 | 0.00 | 0.00 | 74 | 1014.8 |
| 20260507091321 | 64 | 96 | 7.8 | 11.3 | 0.00 | 0.00 | 0.00 | 74 | 1014.7 |
| 20260507090753 | 64 | 82 | 7.8 | 10.4 | 0.00 | 0.00 | 0.00 | 75 | 1014.6 |
| 20260507090254 | 64 | 95 | 6.1 | 9.6 | 0.00 | 0.00 | 0.00 | 74 | 1014.6 |
| 20260507085716 | 63 | 136 | 6.1 | 10.4 | 0.00 | 0.00 | 0.00 | 75 | 1014.6 |
| 20260507085209 | 63 | 49 | 6.1 | 12.2 | 0.00 | 0.00 | 0.00 | 75 | 1014.5 |
| 20260507084710 | 63 | 65 | 8.7 | 12.2 | 0.00 | 0.00 | 0.00 | 75 | 1014.6 |
| 20260507084303 | 63 | 101 | 7.0 | 10.4 | 0.00 | 0.00 | 0.00 | 75 | 1014.6 |
| 20260507083736 | 63 | 89 | 7.8 | 10.4 | 0.00 | 0.00 | 0.00 | 75 | 1014.6 |
| 20260507083302 | 62 | 108 | 5.2 | 12.2 | 0.00 | 0.00 | 0.00 | 77 | 1014.5 |
| 20260507082713 | 62 | 84 | 8.7 | 12.2 | 0.00 | 0.00 | 0.00 | 77 | 1014.4 |
| 20260507082259 | 62 | 82 | 7.8 | 12.2 | 0.00 | 0.00 | 0.00 | 77 | 1014.5 |
| 20260507081709 | 63 | 75 | 8.7 | 12.2 | 0.00 | 0.00 | 0.00 | 76 | 1014.5 |
| 20260507081253 | 63 | 99 | 7.0 | 12.2 | 0.00 | 0.00 | 0.00 | 76 | 1014.5 |
| 20260507080724 | 63 | 60 | 7.8 | 12.2 | 0.00 | 0.00 | 0.00 | 74 | 1014.5 |
| 20260507080311 | 63 | 115 | 7.8 | 10.4 | 0.00 | 0.00 | 0.00 | 76 | 1014.6 |
| 20260507075831 | 63 | 106 | 7.0 | 9.6 | 0.00 | 0.00 | 0.00 | 75 | 1014.5 |
| 20260507075210 | 63 | 96 | 7.0 | 10.4 | 0.00 | 0.00 | 0.00 | 75 | 1014.6 |
| 20260507074827 | 63 | 91 | 7.0 | 11.3 | 0.00 | 0.00 | 0.00 | 76 | 1014.5 |
| 20260507074235 | 63 | 79 | 7.0 | 11.3 | 0.00 | 0.00 | 0.00 | 78 | 1014.6 |
| 20260507073828 | 63 | 65 | 8.7 | 11.3 | 0.00 | 0.00 | 0.00 | 78 | 1014.6 |
| 20260507073232 | 62 | 96 | 7.8 | 12.2 | 0.00 | 0.00 | 0.00 | 78 | 1014.6 |
| 20260507072825 | 62 | 44 | 7.8 | 12.2 | 0.00 | 0.00 | 0.00 | 79 | 1014.6 |
| 20260507072810 | 62 | 79 | 9.6 | 12.2 | 0.00 | 0.00 | 0.00 | 79 | 1014.7 |
| 20260507071710 | 62 | 62 | 7.8 | 12.2 | 0.00 | 0.00 | 0.00 | 80 | 1014.6 |
| 20260507071220 | 62 | 64 | 9.6 | 11.3 | 0.00 | 0.00 | 0.00 | 80 | 1014.5 |
| 20260507070807 | 62 | 50 | 5.2 | 11.3 | 0.00 | 0.00 | 0.00 | 80 | 1014.5 |
| 20260507070233 | 62 | 73 | 7.8 | 9.6 | 0.00 | 0.00 | 0.00 | 79 | 1014.4 |
| 20260507065759 | 62 | 89 | 5.2 | 13.0 | 0.00 | 0.00 | 0.00 | 79 | 1014.4 |
| 20260507065212 | 62 | 75 | 7.8 | 13.0 | 0.00 | 0.00 | 0.00 | 79 | 1014.3 |
| 20260507064755 | 62 | 62 | 5.2 | 8.7 | 0.00 | 0.00 | 0.00 | 79 | 1014.3 |
| 20260507064210 | 62 | 79 | 7.0 | 8.7 | 0.00 | 0.00 | 0.00 | 78 | 1014.2 |
| 20260507063754 | 62 | 66 | 7.0 | 9.6 | 0.00 | 0.00 | 0.00 | 78 | 1014.2 |
| 20260507063210 | 62 | 58 | 6.1 | 9.6 | 0.00 | 0.00 | 0.00 | 78 | 1014.2 |
| 20260507062743 | 62 | 76 | 7.0 | 8.7 | 0.00 | 0.00 | 0.00 | 76 | 1014.0 |
| 20260507062332 | 62 | 74 | 7.0 | 8.7 | 0.00 | 0.00 | 0.00 | 76 | 1014.0 |
| 20260507061711 | 62 | 71 | 6.1 | 7.8 | 0.00 | 0.00 | 0.00 | 76 | 1014.0 |
| 20260507061325 | 62 | 91 | 5.2 | 8.7 | 0.00 | 0.00 | 0.00 | 76 | 1013.9 |
| 20260507060730 | 62 | 65 | 5.2 | 8.7 | 0.00 | 0.00 | 0.00 | 76 | 1013.9 |
| 20260507060339 | 61 | 44 | 6.1 | 7.8 | 0.00 | 0.00 | 0.00 | 76 | 1013.8 |
| 20260507055727 | 61 | 77 | 5.2 | 6.1 | 0.00 | 0.00 | 0.00 | 76 | 1013.8 |
| 20260507055220 | 61 | 52 | 4.3 | 6.1 | 0.00 | 0.00 | 0.00 | 77 | 1013.7 |
| 20260507054721 | 61 | 65 | 2.6 | 5.2 | 0.00 | 0.00 | 0.00 | 78 | 1013.7 |
| 20260507054208 | 61 | 56 | 4.3 | 5.2 | 0.00 | 0.00 | 0.00 | 78 | 1013.7 |
| 20260507053715 | 60 | 53 | 3.5 | 4.3 | 0.00 | 0.00 | 0.00 | 79 | 1013.7 |
| 20260507053302 | 60 | 32 | 2.6 | 4.3 | 0.00 | 0.00 | 0.00 | 79 | 1013.7 |
| 20260507052711 | 60 | 51 | 2.6 | 3.5 | 0.00 | 0.00 | 0.00 | 80 | 1013.7 |
| 20260507052306 | 60 | 37 | 2.6 | 4.3 | 0.00 | 0.00 | 0.00 | 80 | 1013.6 |
| 20260507051708 | 60 | 30 | 2.6 | 4.3 | 0.00 | 0.00 | 0.00 | 80 | 1013.5 |
| 20260507051256 | 60 | 30 | 3.5 | 4.3 | 0.00 | 0.00 | 0.00 | 81 | 1013.4 |
| 20260507050709 | 59 | 15 | 3.5 | 4.3 | 0.00 | 0.00 | 0.00 | 81 | 1013.4 |
| 20260507050357 | 59 | 24 | 3.5 | 4.3 | 0.00 | 0.00 | 0.00 | 82 | 1013.3 |
| 20260507045707 | 59 | 359 | 3.5 | 4.3 | 0.00 | 0.00 | 0.00 | 82 | 1013.3 |
| 20260507045244 | 59 | 3 | 2.6 | 4.3 | 0.00 | 0.00 | 0.00 | 83 | 1013.3 |
| 20260507044708 | 59 | 307 | 2.6 | 4.3 | 0.00 | 0.00 | 0.00 | 83 | 1013.4 |
| 20260507044209 | 59 | 344 | 2.6 | 4.3 | 0.00 | 0.00 | 0.00 | 83 | 1013.4 |
| 20260507044122 | 59 | 337 | 1.7 | 3.5 | 0.00 | 0.00 | 0.00 | 83 | 1013.3 |
| 20260507044118 | 59 | 359 | 1.7 | 4.3 | 0.00 | 0.00 | 0.00 | 82 | 1013.4 |
| 20260507044022 | 58 | 326 | 3.5 | 4.3 | 0.00 | 0.00 | 0.00 | 83 | 1013.4 |
| 20260507043537 | 59 | 347 | 3.5 | 3.5 | 0.00 | 0.00 | 0.00 | 83 | 1013.4 |
| 20260507041721 | 59 | 18 | 3.5 | 4.3 | 0.00 | 0.00 | 0.00 | 83 | 1013.3 |
| 20260507041234 | 59 | 34 | 3.5 | 5.2 | 0.00 | 0.00 | 0.00 | 83 | 1013.3 |
| 20260507040709 | 59 | 32 | 3.5 | 5.2 | 0.00 | 0.00 | 0.00 | 83 | 1013.2 |
| 20260507040255 | 59 | 30 | 3.5 | 4.3 | 0.00 | 0.00 | 0.00 | 83 | 1013.3 |
| 20260507035805 | 59 | 27 | 3.5 | 3.5 | 0.00 | 0.00 | 0.00 | 84 | 1013.3 |
| 20260507035211 | 59 | 8 | 2.6 | 4.3 | 0.00 | 0.00 | 0.00 | 84 | 1013.3 |
| 20260507034759 | 59 | 26 | 3.5 | 4.3 | 0.00 | 0.00 | 0.00 | 84 | 1013.3 |
| 20260507034210 | 59 | 25 | 2.6 | 4.3 | 0.00 | 0.00 | 0.00 | 84 | 1013.3 |
| 20260507033759 | 59 | 34 | 2.6 | 4.3 | 0.00 | 0.00 | 0.00 | 84 | 1013.3 |
| 20260507033209 | 59 | 36 | 3.5 | 4.3 | 0.00 | 0.00 | 0.00 | 84 | 1013.3 |
| 20260507032820 | 59 | 32 | 2.6 | 3.5 | 0.00 | 0.00 | 0.00 | 84 | 1013.3 |
| 20260507032208 | 59 | 37 | 2.6 | 3.5 | 0.00 | 0.00 | 0.00 | 84 | 1013.4 |
| 20260507031744 | 59 | 38 | 2.6 | 3.5 | 0.00 | 0.00 | 0.00 | 83 | 1013.4 |
| 20260507031207 | 59 | 35 | 2.6 | 3.5 | 0.00 | 0.00 | 0.00 | 83 | 1013.4 |
| 20260507030724 | 59 | 51 | 3.5 | 4.3 | 0.00 | 0.00 | 0.00 | 81 | 1013.4 |
| 20260507030714 | 59 | 32 | 2.6 | 5.2 | 0.00 | 0.00 | 0.00 | 83 | 1013.4 |
| 20260507030704 | 59 | 46 | 3.5 | 4.3 | 0.00 | 0.00 | 0.00 | 82 | 1013.4 |
| 20260507030612 | 59 | 30 | 3.5 | 5.2 | 0.00 | 0.00 | 0.00 | 82 | 1013.5 |
| 20260507030034 | 59 | 38 | 3.5 | 4.3 | 0.00 | 0.00 | 0.00 | 82 | 1013.5 |
| 20260507024815 | 59 | 46 | 3.5 | 4.3 | 0.00 | 0.00 | 0.00 | 82 | 1013.5 |
| 20260507023717 | 59 | 39 | 2.6 | 5.2 | 0.00 | 0.00 | 0.00 | 81 | 1013.4 |
| 20260507023208 | 59 | 37 | 3.5 | 5.2 | 0.00 | 0.00 | 0.00 | 81 | 1013.4 |
| 20260507023041 | 59 | 48 | 3.5 | 5.2 | 0.00 | 0.00 | 0.00 | 80 | 1013.3 |
| 20260507022755 | 59 | 37 | 3.5 | 5.2 | 0.00 | 0.00 | 0.00 | 80 | 1013.4 |
| 20260507022422 | 60 | 56 | 3.5 | 5.2 | 0.00 | 0.00 | 0.00 | 80 | 1013.4 |
| 20260507021259 | 60 | 38 | 3.5 | 5.2 | 0.00 | 0.00 | 0.00 | 80 | 1013.4 |
| 20260507020708 | 60 | 41 | 3.5 | 4.3 | 0.00 | 0.00 | 0.00 | 80 | 1013.4 |
| 20260507020656 | 60 | 30 | 2.6 | 4.3 | 0.00 | 0.00 | 0.00 | 81 | 1013.6 |
| 20260507020447 | 60 | 28 | 2.6 | 4.3 | 0.00 | 0.00 | 0.00 | 79 | 1013.4 |
| 20260507015907 | 60 | 27 | 2.6 | 4.3 | 0.00 | 0.00 | 0.00 | 80 | 1013.4 |
| 20260507015344 | 60 | 16 | 3.5 | 4.3 | 0.00 | 0.00 | 0.00 | 80 | 1013.4 |
| 20260507014818 | 60 | 28 | 3.5 | 4.3 | 0.00 | 0.00 | 0.00 | 81 | 1013.5 |
| 20260507013709 | 60 | 45 | 2.6 | 4.3 | 0.00 | 0.00 | 0.00 | 81 | 1013.5 |
| 20260507013208 | 60 | 34 | 3.5 | 5.2 | 0.00 | 0.00 | 0.00 | 81 | 1013.5 |
| 20260507012830 | 60 | 44 | 3.5 | 5.2 | 0.00 | 0.00 | 0.00 | 81 | 1013.5 |
| 20260507012237 | 60 | 46 | 2.6 | 6.1 | 0.00 | 0.00 | 0.00 | 81 | 1013.5 |
| 20260507011825 | 60 | 51 | 4.3 | 6.1 | 0.00 | 0.00 | 0.00 | 81 | 1013.5 |
| 20260507011231 | 60 | 50 | 3.5 | 5.2 | 0.00 | 0.00 | 0.00 | 82 | 1013.5 |
| 20260507010746 | 60 | 39 | 3.5 | 5.2 | 0.00 | 0.00 | 0.00 | 82 | 1013.6 |
| 20260507010248 | 60 | 42 | 4.3 | 5.2 | 0.00 | 0.00 | 0.00 | 82 | 1013.6 |
| 20260507005712 | 60 | 46 | 4.3 | 5.2 | 0.00 | 0.00 | 0.00 | 83 | 1013.6 |
| 20260507005223 | 60 | 48 | 3.5 | 5.2 | 0.00 | 0.00 | 0.00 | 83 | 1013.8 |
| 20260507004805 | 60 | 41 | 3.5 | 5.2 | 0.00 | 0.00 | 0.00 | 83 | 1013.8 |
| 20260507004209 | 60 | 50 | 2.6 | 5.2 | 0.00 | 0.00 | 0.00 | 82 | 1013.9 |
| 20260507003759 | 60 | 41 | 3.5 | 6.1 | 0.00 | 0.00 | 0.00 | 82 | 1013.8 |
| 20260507003209 | 60 | 65 | 3.5 | 6.1 | 0.00 | 0.00 | 0.00 | 82 | 1013.9 |
| 20260507002754 | 60 | 56 | 3.5 | 7.0 | 0.00 | 0.00 | 0.00 | 81 | 1013.9 |
| 20260507002208 | 60 | 43 | 5.2 | 7.0 | 0.00 | 0.00 | 0.00 | 81 | 1013.9 |
| 20260507001747 | 60 | 51 | 3.5 | 5.2 | 0.00 | 0.00 | 0.00 | 82 | 1013.8 |
| 20260507001209 | 60 | 56 | 1.7 | 4.3 | 0.00 | 0.00 | 0.00 | 82 | 1013.8 |
| 20260507000850 | 60 | 71 | 3.5 | 5.2 | 0.00 | 0.00 | 0.00 | 83 | 1013.9 |
| 20260507000820 | 60 | 41 | 2.6 | 5.2 | 0.00 | 0.00 | 0.00 | 82 | 1014.0 |
| 20260507000328 | 60 | 40 | 4.3 | 5.2 | 0.00 | 0.00 | 0.00 | 82 | 1014.0 |
| 20260506235327 | 60 | 44 | 2.6 | 4.3 | 0.00 | 0.00 | 0.00 | 83 | 1013.9 |
| 20260506234708 | 60 | 58 | 3.5 | 4.3 | 0.00 | 0.00 | 0.00 | 83 | 1014.0 |
| 20260506234333 | 61 | 47 | 2.6 | 6.1 | 0.00 | 0.00 | 0.00 | 84 | 1014.1 |
| 20260506233722 | 61 | 68 | 3.5 | 7.0 | 0.00 | 0.00 | 0.00 | 84 | 1014.1 |
| 20260506233240 | 61 | 84 | 5.2 | 7.0 | 0.00 | 0.00 | 0.00 | 84 | 1013.9 |
| 20260506232716 | 61 | 58 | 5.2 | 7.8 | 0.00 | 0.00 | 0.00 | 84 | 1013.9 |
| 20260506232208 | 61 | 61 | 5.2 | 9.6 | 0.00 | 0.00 | 0.00 | 85 | 1013.9 |
| 20260506231710 | 61 | 67 | 6.1 | 9.6 | 0.00 | 0.00 | 0.00 | 85 | 1013.9 |
| 20260506231302 | 61 | 56 | 7.0 | 9.6 | 0.00 | 0.00 | 0.00 | 85 | 1013.9 |
| 20260506230706 | 61 | 51 | 7.0 | 11.3 | 0.00 | 0.00 | 0.00 | 84 | 1014.0 |
| 20260506230320 | 62 | 71 | 7.8 | 11.3 | 0.00 | 0.00 | 0.00 | 84 | 1014.0 |
| 20260506225708 | 62 | 68 | 8.7 | 11.3 | 0.00 | 0.00 | 0.00 | 83 | 1013.9 |
| 20260506225328 | 62 | 63 | 7.8 | 10.4 | 0.00 | 0.00 | 0.00 | 84 | 1013.9 |
| 20260506224711 | 62 | 75 | 7.8 | 10.4 | 0.00 | 0.00 | 0.00 | 84 | 1013.8 |
| 20260506224254 | 62 | 69 | 6.1 | 13.0 | 0.00 | 0.00 | 0.00 | 85 | 1013.8 |
| 20260506223707 | 63 | 77 | 7.8 | 13.0 | 0.00 | 0.00 | 0.00 | 83 | 1013.9 |
| 20260506223250 | 63 | 102 | 3.5 | 6.1 | 0.00 | 0.00 | 0.00 | 84 | 1013.8 |
| 20260506223110 | 64 | 160 | 1.7 | 3.5 | 0.00 | 0.00 | 0.00 | 84 | 1013.9 |
| 20260506222746 | 63 | 103 | 3.5 | 5.2 | 0.00 | 0.00 | 0.00 | 84 | 1013.8 |
| 20260506221838 | 64 | 122 | 1.7 | 4.3 | 0.00 | 0.00 | 0.00 | 83 | 1013.9 |
| 20260506221301 | 64 | 205 | 1.7 | 3.5 | 0.00 | 0.00 | 0.00 | 84 | 1013.9 |
| 20260506221250 | 64 | 156 | 1.7 | 4.3 | 0.00 | 0.00 | 0.00 | 83 | 1013.9 |
| 20260506221031 | 64 | 151 | 1.7 | 4.3 | 0.00 | 0.00 | 0.00 | 84 | 1013.9 |
| 20260506215831 | 64 | 145 | 0.9 | 4.3 | 0.00 | 0.00 | 0.00 | 83 | 1013.8 |
| 20260506215814 | 64 | 192 | 0.9 | 3.5 | 0.00 | 0.00 | 0.00 | 84 | 1013.9 |
| 20260506214706 | 64 | 88 | 1.7 | 7.0 | 0.00 | 0.00 | 0.00 | 83 | 1013.7 |
| 20260506214653 | 64 | 252 | 2.6 | 7.0 | 0.00 | 0.00 | 0.00 | 82 | 1013.8 |
| 20260506213758 | 64 | 180 | 1.7 | 5.2 | 0.00 | 0.00 | 0.00 | 80 | 1013.8 |
| 20260506213500 | 64 | 220 | 1.7 | 4.3 | 0.00 | 0.00 | 0.00 | 80 | 1013.8 |
| 20260506212755 | 63 | 233 | 2.6 | 8.7 | 0.00 | 0.00 | 0.00 | 79 | 1013.7 |
| 20260506212310 | 62 | 146 | 1.7 | 6.1 | 0.00 | 0.00 | 0.00 | 82 | 1013.8 |
| 20260506212307 | 62 | 59 | 3.5 | 4.3 | 0.00 | 0.00 | 0.00 | 78 | 1013.9 |
| 20260506212246 | 63 | 27 | 2.6 | 8.7 | 0.00 | 0.00 | 0.00 | 83 | 1013.9 |
| 20260506210744 | 62 | 336 | 0.9 | 4.3 | 0.00 | 0.00 | 0.00 | 77 | 1013.8 |
| 20260506210207 | 62 | 299 | 1.7 | 4.3 | 0.00 | 0.00 | 0.00 | 77 | 1013.7 |
| 20260506205757 | 62 | 306 | 1.7 | 2.6 | 0.00 | 0.00 | 0.00 | 78 | 1013.6 |
| 20260506205741 | 62 | 339 | 1.7 | 3.5 | 0.00 | 0.00 | 0.00 | 77 | 1013.6 |
| 20260506205248 | 62 | 326 | 1.7 | 3.5 | 0.00 | 0.00 | 0.00 | 78 | 1013.6 |
| 20260506204326 | 62 | 48 | 0.0 | 1.7 | 0.00 | 0.00 | 0.00 | 77 | 1013.6 |
| 20260506203707 | 62 | 340 | 0.0 | 2.6 | 0.00 | 0.00 | 0.00 | 77 | 1013.5 |
| 20260506203317 | 62 | 297 | 0.9 | 2.6 | 0.00 | 0.00 | 0.00 | 77 | 1013.4 |
| 20260506203148 | 62 | 322 | 0.0 | 0.0 | 0.00 | 0.00 | 0.00 | 77 | 1013.3 |
| 20260506202816 | 62 | 337 | 0.9 | 2.6 | 0.00 | 0.00 | 0.00 | 77 | 1013.4 |
| 20260506201715 | 62 | 322 | 0.0 | 2.6 | 0.00 | 0.00 | 0.00 | 77 | 1013.2 |
| 20260506201207 | 62 | 322 | 0.0 | 2.6 | 0.00 | 0.00 | 0.00 | 77 | 1013.1 |
| 20260506200725 | 62 | 302 | 0.0 | 1.7 | 0.00 | 0.00 | 0.00 | 77 | 1013.1 |
| 20260506200300 | 63 | 41 | 0.9 | 2.6 | 0.00 | 0.00 | 0.00 | 76 | 1013.0 |
| 20260506195902 | 63 | 217 | 0.9 | 2.6 | 0.00 | 0.00 | 0.00 | 76 | 1012.9 |
| 20260506195826 | 63 | 197 | 0.9 | 2.6 | 0.00 | 0.00 | 0.00 | 76 | 1013.0 |
| 20260506194708 | 63 | 218 | 0.0 | 0.0 | 0.00 | 0.00 | 0.00 | 75 | 1012.8 |
| 20260506194319 | 63 | 218 | 0.0 | 2.6 | 0.00 | 0.00 | 0.00 | 74 | 1012.7 |
| 20260506193708 | 64 | 218 | 0.0 | 2.6 | 0.00 | 0.00 | 0.00 | 74 | 1012.6 |
| 20260506193553 | 64 | 165 | 0.0 | 1.7 | 0.00 | 0.00 | 0.00 | 74 | 1012.5 |
| 20260506192850 | 64 | 210 | 0.0 | 4.3 | 0.00 | 0.00 | 0.00 | 73 | 1012.5 |
| 20260506192832 | 64 | 157 | 0.0 | 1.7 | 0.00 | 0.00 | 0.00 | 73 | 1012.5 |
| 20260506191822 | 64 | 212 | 0.0 | 4.3 | 0.00 | 0.00 | 0.00 | 73 | 1012.4 |
| 20260506191209 | 64 | 278 | 0.9 | 3.5 | 0.00 | 0.00 | 0.00 | 73 | 1012.4 |
| 20260506190818 | 64 | 177 | 0.0 | 2.6 | 0.00 | 0.00 | 0.00 | 73 | 1012.3 |
| 20260506190207 | 64 | 236 | 0.9 | 4.3 | 0.00 | 0.00 | 0.00 | 73 | 1012.2 |
| 20260506185812 | 64 | 207 | 1.7 | 4.3 | 0.00 | 0.00 | 0.00 | 72 | 1012.1 |
| 20260506185217 | 65 | 120 | 1.7 | 4.3 | 0.00 | 0.00 | 0.00 | 72 | 1012.0 |
| 20260506184757 | 67 | 231 | 0.9 | 2.6 | 0.00 | 0.00 | 0.00 | 69 | 1011.7 |
| 20260506184739 | 65 | 172 | 0.9 | 4.3 | 0.00 | 0.00 | 0.00 | 71 | 1012.0 |
| 20260506184343 | 65 | 239 | 2.6 | 6.1 | 0.00 | 0.00 | 0.00 | 71 | 1012.0 |
| 20260506183939 | 65 | 136 | 2.6 | 7.8 | 0.00 | 0.00 | 0.00 | 70 | 1011.9 |
| 20260506183553 | 67 | 190 | 0.9 | 3.5 | 0.00 | 0.00 | 0.00 | 70 | 1011.7 |
| 20260506183549 | 67 | 171 | 0.9 | 4.3 | 0.00 | 0.00 | 0.00 | 69 | 1011.6 |
| 20260506183542 | 67 | 144 | 1.7 | 7.0 | 0.00 | 0.00 | 0.00 | 69 | 1011.7 |
| 20260506183425 | 66 | 271 | 2.6 | 7.8 | 0.00 | 0.00 | 0.00 | 70 | 1011.8 |
| 20260506183054 | 67 | 249 | 1.7 | 5.2 | 0.00 | 0.00 | 0.00 | 70 | 1011.8 |
| 20260506180204 | 67 | 79 | 2.6 | 7.0 | 0.00 | 0.00 | 0.00 | 69 | 1011.7 |
| 20260506175741 | 67 | 159 | 1.7 | 5.2 | 0.00 | 0.00 | 0.00 | 72 | 1011.7 |
| 20260506175203 | 66 | 148 | 3.5 | 7.8 | 0.00 | 0.00 | 0.00 | 73 | 1011.6 |
| 20260506174847 | 66 | 119 | 4.3 | 7.8 | 0.00 | 0.00 | 0.00 | 80 | 1011.6 |
| 20260506174822 | 66 | 320 | 5.2 | 7.8 | 0.00 | 0.00 | 0.00 | 78 | 1011.6 |
| 20260506173657 | 66 | 149 | 4.3 | 7.0 | 0.00 | 0.00 | 0.00 | 78 | 1011.5 |
| 20260506173154 | 66 | 200 | 3.5 | 7.0 | 0.00 | 0.00 | 0.00 | 77 | 1011.4 |
| 20260506172753 | 67 | 25 | 2.6 | 7.0 | 0.00 | 0.00 | 0.00 | 75 | 1011.4 |
| 20260506172738 | 66 | 154 | 2.6 | 7.0 | 0.00 | 0.00 | 0.00 | 76 | 1011.4 |
| 20260506171719 | 67 | 207 | 3.5 | 6.1 | 0.00 | 0.00 | 0.00 | 73 | 1011.4 |
| 20260506171239 | 68 | 130 | 2.6 | 7.8 | 0.00 | 0.00 | 0.00 | 72 | 1011.3 |
| 20260506171143 | 70 | 271 | 1.7 | 6.1 | 0.00 | 0.00 | 0.00 | 66 | 1011.3 |
| 20260506170740 | 68 | 106 | 3.5 | 7.8 | 0.00 | 0.00 | 0.00 | 70 | 1011.4 |
| 20260506170206 | 70 | 245 | 2.6 | 6.1 | 0.00 | 0.00 | 0.00 | 65 | 1011.2 |
| 20260506170156 | 69 | 165 | 3.5 | 6.1 | 0.00 | 0.00 | 0.00 | 68 | 1011.3 |
| 20260506165008 | 70 | 94 | 1.7 | 4.3 | 0.00 | 0.00 | 0.00 | 64 | 1011.1 |
| 20260506164253 | 71 | 274 | 0.9 | 4.3 | 0.00 | 0.00 | 0.00 | 62 | 1011.1 |
| 20260506163801 | 71 | 203 | 1.7 | 4.3 | 0.00 | 0.00 | 0.00 | 63 | 1011.2 |
| 20260506163738 | 71 | 244 | 0.9 | 4.3 | 0.00 | 0.00 | 0.00 | 63 | 1011.2 |
| 20260506162655 | 71 | 206 | 0.9 | 5.2 | 0.00 | 0.00 | 0.00 | 62 | 1011.2 |
| 20260506162243 | 71 | 221 | 1.7 | 5.2 | 0.00 | 0.00 | 0.00 | 61 | 1011.1 |
| 20260506161701 | 71 | 258 | 1.7 | 4.3 | 0.00 | 0.00 | 0.00 | 62 | 1011.1 |
| 20260506161237 | 70 | 182 | 1.7 | 5.2 | 0.00 | 0.00 | 0.00 | 60 | 1011.1 |
| 20260506160723 | 70 | 205 | 2.6 | 6.1 | 0.00 | 0.00 | 0.00 | 59 | 1011.2 |
| 20260506160213 | 71 | 77 | 1.7 | 5.2 | 0.00 | 0.00 | 0.00 | 56 | 1011.1 |
| 20260506160201 | 71 | 147 | 2.6 | 6.1 | 0.00 | 0.00 | 0.00 | 58 | 1011.1 |